SHIJIAN-16 (SJ-16)

Last updated on Sun Apr 12 2026 00:02:17 GMT+0000 (Coordinated Universal Time)

1 39358U 13057A 26101.54373515 .00000795 00000+0 80214-4 0 9996 2 39358 74.9704 122.8892 0015615 27.6395 332.5620 14.92453810676404
UTC large
Height (km)
Speed (km/s)
/
Latitude / Longitude
Inclination (degrees)
Orbital Period (minutes)
Azimuth
Elevation
Range (km)
Doppler Factor

Next 0 passes for location: London (51.5072 / 0.1276)

Sorry there are no passes over London.